Tacoma Narrows, WA
on Saturday, January 5, 2013

Saturday
Previous Day Next Day
Daily Summary
 ActualAverageRecord
Temperature
Mean Temperature °F °F  
Max Temperature 44°F 43°F 51°F (2001)
Min Temperature 41°F 36°F 23°F (2004)
Degree Days
Heating Degree Days 22    
Moisture
Dew Point 39°F   
Average Humidity 88    
Maximum Humidity 96    
Minimum Humidity 76    
Precipitation
Precipitation 0.10 in in in ()
Wind
Wind Speed 2 mph   
Max Wind Speed 10 mph   
Max Gust Speed mph   
Visibility 6 miles   
Events Rain   
Averages and records for this station are not official NWS values.
Key: T is trace of precipitation, MM is missing value
Source: NWS Daily Summary
Seasonal Weather Averages
Time(PST)TemperatureDew PointHumidity Pressure Visibility Wind DirectionWind SpeedGust SpeedPrecipitationEvents Conditions
12:12 AM 42.8°F 39.2°F 87% 30.16 in 2.0 miles Calm Calm - N/A   Overcast
12:21 AM 42.8°F 41.0°F 93% 30.15 in 5.0 miles Calm Calm - N/A   Overcast
12:35 AM 42.8°F 39.2°F 87% 30.15 in 1.5 miles Calm Calm - N/A   Overcast
12:53 AM 42.1°F 39.9°F 92% 30.16 in 0.8 miles Calm Calm - N/A   Overcast
1:00 AM 42.8°F 39.2°F 87% 30.15 in 1.0 miles Calm Calm - N/A   Overcast
1:12 AM 42.8°F 39.2°F 87% 30.16 in 2.0 miles Calm Calm - N/A   Overcast
1:18 AM 42.8°F 39.2°F 87% 30.16 in 4.0 miles Calm Calm - N/A   Overcast
1:53 AM 43.0°F 39.9°F 89% 30.16 in 5.0 miles Calm Calm - N/A   Overcast
2:26 AM 42.8°F 39.2°F 87% 30.17 in 5.0 miles SW 3.5 mph - N/A   Overcast
2:53 AM 43.0°F 41.0°F 93% 30.18 in 5.0 miles Calm Calm - N/A   Overcast
3:53 AM 43.0°F 41.0°F 93% 30.17 in 6.0 miles Calm Calm - N/A   Overcast
4:25 AM 42.8°F 41.0°F 93% 30.17 in 1.8 miles SE 4.6 mph - N/A   Overcast
4:38 AM 42.8°F 41.0°F 93% 30.16 in 0.8 miles Calm Calm - N/A   Mist
4:53 AM 42.1°F 41.0°F 96% 30.17 in 0.8 miles Calm Calm - N/A   Mist
5:04 AM 42.8°F 41.0°F 93% 30.16 in 1.2 miles Calm Calm - N/A   Overcast
5:27 AM 42.8°F 41.0°F 93% 30.16 in 3.0 miles Calm Calm - N/A   Overcast
5:53 AM 42.1°F 39.9°F 92% 30.17 in 3.0 miles WSW 3.5 mph - 0.01 in   Overcast
6:23 AM 42.8°F 39.2°F 87% 30.16 in 5.0 miles West 3.5 mph - N/A   Overcast
6:31 AM 42.8°F 41.0°F 93% 30.17 in 5.0 miles Calm Calm - N/A   Overcast
6:53 AM 42.1°F 39.9°F 92% 30.18 in 8.0 miles Calm Calm - N/A   Overcast
7:04 AM 42.8°F 39.2°F 87% 30.15 in 7.0 miles ENE 3.5 mph - N/A   Overcast
7:14 AM 42.8°F 39.2°F 87% 30.15 in 4.0 miles ENE 4.6 mph - N/A   Overcast
7:53 AM 42.1°F 39.9°F 92% 30.18 in 4.0 miles SW 4.6 mph - N/A   Mostly Cloudy
8:53 AM 42.1°F 39.0°F 89% 30.19 in 8.0 miles SW 4.6 mph - N/A   Overcast
9:53 AM 42.1°F 39.0°F 89% 30.21 in 10.0 miles Calm Calm - 0.00 in Rain Light Rain
10:53 AM 43.0°F 39.0°F 86% 30.19 in 10.0 miles ENE 5.8 mph - 0.00 in   Mostly Cloudy
11:53 AM 44.1°F 37.0°F 76% 30.19 in 10.0 miles South 4.6 mph - N/A   Overcast
12:53 PM 44.1°F 37.9°F 79% 30.17 in 10.0 miles Calm Calm - N/A   Overcast
1:53 PM 44.1°F 39.0°F 82% 30.14 in 10.0 miles West 3.5 mph - N/A   Mostly Cloudy
2:53 PM 44.1°F 39.0°F 82% 30.14 in 10.0 miles Calm Calm - N/A   Overcast
3:53 PM 44.1°F 39.9°F 85% 30.14 in 10.0 miles Calm Calm - N/A   Overcast
4:53 PM 42.1°F 39.0°F 89% 30.13 in 10.0 miles Calm Calm - N/A   Mostly Cloudy
5:53 PM 41.0°F 37.9°F 89% 30.13 in 10.0 miles Calm Calm - N/A   Overcast
6:53 PM 42.1°F 37.0°F 82% 30.13 in 10.0 miles South 3.5 mph - N/A   Overcast
7:53 PM 41.0°F 37.0°F 86% 30.14 in 7.0 miles WSW 4.6 mph - 0.02 in Rain Light Rain
8:53 PM 41.0°F 37.0°F 86% 30.14 in 7.0 miles SSW 4.6 mph - 0.03 in Rain Light Rain
9:22 PM 41.0°F 37.4°F 87% 30.13 in 5.0 miles SSW 5.8 mph - 0.02 in Rain Light Rain
9:38 PM 41.0°F 37.4°F 87% 30.13 in 7.0 miles SSW 6.9 mph - 0.04 in Rain Light Rain
9:53 PM 41.0°F 37.0°F 86% 30.15 in 10.0 miles SSW 10.4 mph - 0.04 in   Overcast
10:53 PM 41.0°F 37.0°F 86% 30.15 in 10.0 miles SSW 9.2 mph - 0.00 in   Overcast
11:44 PM 41.0°F 37.4°F 87% 30.15 in 10.0 miles Variable 5.8 mph - N/A   Overcast
11:53 PM 41.0°F 37.0°F 86% 30.17 in 10.0 miles South 6.9 mph - N/A   Overcast
Moon Phase
Jan. 05 Jan. 11 Jan. 18 Jan. 26 Feb. 03
Sunrise:07:56 AM (PST) Moon Rise:12:55 AM (PST)1/5
Sunset:04:35 PM (PST) Moon Set:11:40 AM (PST)1/5

Copyright © 2014 The Weather Underground, Inc.